Wind_Speed
8 8 7 5 5 5 7 9 6 10 14 21 24 25 22 16 12 10 13 8 11 7 12 21 21 16 19 18 18 22 18 15 17 16 12 11 13 17 12 14 18 21 24 18
9 8 7 5 4 4 9 15 6 15 13 15 18 17 19 19 18 12 9 12 10 10 3 5 11 13 8 9 13 7 13 17 18 17 16 17 16 16 18 19 20 23 9 7
8 8 7 4 3 4 11 11 4 9 18 22 16 14 22 22 15 12 16 12 12 12 14 8 7 9 4 13 12 15 12 12 15 20 5 5 15 14 16 19 20 22 20 9
8 8 8 5 3 4 9 11 3 5 6 18 13 11 11 21 16 16 10 16 12 13 12 16 14 11 10 10 16 17 12 13 14 18 20 19 19 15 17 15 20 22 23 8
9 8 8 8 5 5 12 3 6 14 7 7 13 18 14 13 19 15 17 15 12 14 14 12 12 14 14 11 10 14 14 17 15 21 21 21 24 23 19 22 21 19 21 25
10 9 9 9 8 9 12 12 15 9 3 6 9 12 14 14 12 16 11 12 16 13 16 16 12 6 13 6 8 11 15 13 14 20 16 18 22 21 20 21 20 22 24 24
11 11 10 10 10 11 11 8 11 8 6 7 9 11 12 13 14 10 15 11 6 14 14 22 21 15 7 8 14 8 8 10 12 18 17 16 20 17 15 13 17 19 20 7
12 11 11 11 11 11 11 9 11 12 7 5 10 9 11 11 8 16 5 12 14 15 14 14 14 15 16 16 16 16 13 12 14 19 21 19 19 13 19 16 17 14 13 4
13 12 12 11 11 11 12 11 11 14 8 3 2 5 12 11 12 9 19 12 18 22 13 12 16 15 18 14 21 22 22 21 18 20 18 18 21 20 13 15 13 10 11 12
12 13 13 13 11 11 11 11 12 14 18 7 12 7 10 9 12 9 12 15 13 10 12 17 20 21 19 22 18 18 24 26 26 24 25 27 23 17 23 15 9 10 11 10
11 13 12 13 12 11 10 10 12 14 19 9 14 23 23 8 8 10 6 10 9 6 11 14 15 16 18 22 21 15 21 23 27 25 23 30 20 17 8 10 7 6 8 8
11 13 12 13 13 11 10 10 10 12 14 18 10 13 19 27 22 22 8 11 11 8 10 12 14 17 13 16 15 22 8 22 21 19 19 17 16 12 17 17 10 15 12 10
11 12 12 13 13 12 10 9 8 9 9 11 12 9 14 17 22 26 20 9 22 10 16 7 8 15 14 11 19 11 16 11 11 6 10 9 11 14 16 19 17 15 9 7
12 12 12 12 12 11 10 8 7 7 5 4 9 16 19 13 18 23 27 25 23 24 22 10 10 10 7 13 7 9 8 18 17 17 12 17 12 11 14 15 12 5 11 10
12 11 12 12 11 10 10 8 7 7 11 15 10 6 8 9 13 17 22 30 30 20 15 15 16 13 14 12 10 10 4 13 11 15 12 10 15 12 10 8 11 14 16 15
11 11 11 12 11 10 10 7 9 8 10 11 2 6 14 14 10 13 16 19 24 23 12 11 13 14 14 13 13 12 16 9 10 13 13 13 3 12 11 12 8 11 20 15
10 11 11 12 12 11 11 12 7 8 8 10 3 4 5 4 3 5 6 9 9 10 12 13 13 12 12 16 20 11 14 8 6 6 16 7 12 12 10 11 15 18 19 16
10 11 11 12 12 11 11 10 9 8 8 11 4 5 5 3 4 5 6 6 7 9 11 12 14 15 14 16 14 21 17 18 20 20 9 8 7 13 17 15 16 14 19 21
9 10 10 11 11 10 10 9 9 9 12 9 5 7 6 5 11 10 7 8 10 7 11 13 13 15 18 15 15 16 15 15 16 13 15 19 14 12 19 21 16 13 20 25
9 9 8 8 8 8 8 7 7 8 12 13 11 6 8 10 8 10 8 6 10 8 13 10 19 16 15 14 15 14 14 18 12 9 13 11 15 15 19 15 18 18 21 24
11 9 7 8 6 6 5 5 3 4 4 7 10 6 7 4 8 13 11 6 8 8 10 12 13 16 8 17 17 18 21 24 25 16 16 15 12 17 13 20 22 22 24 24
17 13 8 7 5 4 4 4 4 5 5 5 9 7 6 6 7 11 14 5 4 6 8 7 11 11 15 18 21 22 21 17 14 11 12 14 15 18 25 13 20 18 15 22
15 12 8 6 5 6 5 6 6 6 5 9 6 11 6 5 7 7 3 4 7 6 5 8 8 13 16 17 21 22 20 20 19 21 17 12 16 16 19 24 13 12 18 19
16 8 8 6 4 4 5 6 5 7 4 8 7 4 8 8 6 5 4 7 7 5 11 8 8 10 11 14 13 17 24 24 22 23 20 22 19 17 20 18 27 13 19 20
11 5 6 5 4 3 3 3 5 4 7 5 3 4 4 2 5 3 5 3 5 5 3 4 8 12 14 18 21 23 22 24 27 27 27 26 23 22 26 23 24 26 22 18
10 6 6 4 3 4 4 3 4 6 4 5 5 5 4 6 3 3 4 5 3 2 3 9 13 21 23 24 26 28 29 30 33 30 26 27 26 26 22 21 22 25 25 31
9 5 6 5 4 5 4 7 10 6 3 5 3 2 5 2 3 5 7 7 10 16 17 20 27 28 31 29 25 21 19 22 19 15 18 20 19 20 20 18 27 26 27 20
Wind_Direction
272 277 288 284 263 234 207 191 161 240 221 205 209 220 213 224 242 260 223 244 255 240 253 215 218 232 233 212 212 210 223 235 241 245 245 249 248 267 281 256 265 259 279 334
283 268 277 287 265 206 178 146 249 258 223 206 217 234 230 228 244 233 236 232 237 254 251 198 218 232 166 140 193 217 215 230 252 251 262 255 239 254 264 267 271 276 288 280
282 272 265 273 259 202 182 183 206 291 216 200 233 235 226 219 231 235 228 233 235 226 233 221 228 218 210 221 190 215 219 247 230 257 265 355 287 267 260 259 263 270 262 266
272 266 257 253 235 200 175 148 206 190 230 219 227 228 224 223 228 223 219 221 225 218 230 225 231 236 228 249 230 225 227 246 258 262 271 273 250 242 246 239 254 254 270 259
265 256 246 244 223 196 174 207 200 205 228 226 218 221 234 218 220 226 225 223 224 226 231 225 229 236 247 219 235 238 219 245 255 265 265 265 262 259 260 266 274 277 264 272
263 255 240 233 229 216 199 230 203 188 230 246 217 213 232 231 219 221 217 221 231 230 234 223 230 200 213 198 188 214 215 235 243 261 267 266 267 257 255 260 262 263 280 278
256 254 242 229 229 231 238 226 201 187 229 231 231 213 226 213 217 221 214 230 214 225 212 215 223 222 237 225 214 189 205 226 240 267 264 253 254 270 276 267 273 265 287 232
249 248 246 229 225 230 236 226 205 187 216 304 214 218 206 197 233 214 199 198 244 226 218 217 239 250 252 237 233 243 234 246 255 258 255 259 260 296 270 279 261 269 309 12
244 240 242 235 221 222 230 230 213 204 152 287 186 172 212 211 225 245 224 237 256 228 223 221 230 229 227 239 244 236 236 236 237 251 268 257 255 253 303 288 225 254 280 315
245 236 235 236 225 220 225 226 220 208 204 276 223 218 187 217 236 241 233 230 255 247 216 228 230 236 231 236 234 218 223 228 232 243 252 259 259 280 303 272 302 341 272 306
253 237 231 232 228 220 221 225 223 218 209 215 239 213 201 205 210 212 239 182 217 228 224 226 229 240 235 232 240 234 216 217 229 242 254 258 262 272 255 233 281 292 317 308
254 241 234 228 229 224 221 226 225 225 224 218 250 231 225 222 201 202 173 201 197 221 227 232 235 240 246 248 245 228 218 229 231 227 250 244 244 237 232 242 268 288 300 281
252 244 234 227 228 229 224 225 229 233 231 241 260 283 244 236 224 223 203 202 218 217 210 227 224 242 238 265 237 242 228 225 225 242 217 216 211 237 241 247 256 275 297 281
248 243 234 229 225 230 226 225 226 228 216 168 216 270 287 251 228 224 217 220 214 217 211 246 236 253 261 232 253 224 259 233 231 230 246 252 152 224 245 244 243 247 253 255
245 238 231 227 220 222 225 223 220 214 193 176 164 293 263 271 235 225 223 229 229 226 232 244 248 259 262 255 253 226 5 236 230 215 226 240 271 289 277 277 267 258 258 256
242 232 226 221 213 213 216 213 219 219 204 193 228 233 280 279 252 227 227 227 227 227 222 226 231 239 259 241 246 254 279 248 251 250 236 226 306 306 285 278 273 258 262 262
237 226 220 214 207 209 216 223 213 207 191 173 244 253 263 254 231 186 194 215 209 221 228 231 229 237 251 239 234 269 235 229 200 243 246 251 259 254 252 286 289 284 268 270
229 220 215 210 205 205 215 218 211 200 192 185 206 240 222 214 170 193 199 221 238 222 228 223 232 238 249 243 243 237 271 279 257 256 254 254 264 271 255 233 241 260 280 274
216 212 209 207 202 203 210 212 209 201 200 183 213 250 197 190 184 218 180 212 229 246 235 233 222 230 235 245 252 253 242 258 248 260 268 244 235 274 260 262 271 257 274 282
195 195 195 200 193 196 201 207 208 205 210 216 204 242 278 156 194 204 211 203 222 242 225 231 229 238 238 243 243 250 239 245 248 267 256 254 251 260 255 259 264 272 272 271
169 162 175 205 179 181 183 200 185 187 214 234 198 256 219 191 222 218 219 199 212 236 232 222 227 223 239 221 232 228 235 248 252 261 244 236 260 250 246 246 271 256 253 260
169 176 170 140 143 176 173 158 165 207 217 177 211 218 222 246 235 235 233 215 230 238 212 209 229 227 219 213 213 231 251 268 233 221 257 258 255 256 250 256 267 263 263 267
169 157 154 164 192 202 187 192 185 198 194 205 185 201 216 192 218 226 244 235 223 248 212 232 245 218 222 232 231 248 267 274 254 231 222 226 257 249 249 234 257 255 279 281
149 151 182 170 182 194 219 219 169 191 210 192 174 216 201 193 215 234 236 224 247 248 241 235 222 236 232 259 264 269 273 269 261 254 231 230 226 246 236 241 237 235 245 267
136 164 203 210 195 206 171 218 202 191 214 150 178 233 233 246 238 212 262 244 232 229 244 232 260 269 271 279 279 275 270 273 267 273 262 242 230 231 222 226 230 226 246 252
149 181 189 204 200 213 183 209 206 118 194 196 213 217 201 220 240 255 256 264 284 338 257 259 262 272 289 296 291 285 278 272 275 270 258 237 249 245 239 236 243 216 232 232
168 168 231 191 199 190 231 172 193 157 158 197 219 227 195 217 227 245 266 281 295 288 289 288 283 299 300 293 287 282 276 274 267 249 224 227 229 230 227 246 233 204 216 224
Height
3114 3114 3114 3114 3113 3114 3117 3119 3123 3124 3125 3129 3129 3131 3134 3140 3142 3141 3144 3145 3144 3144 3145 3145 3150 3152 3154 3156 3159 3161 3165 3167 3167 3165 3166 3167 3168 3167 3167 3166 3164 3162 3160 3159
3111 3112 3112 3112 3112 3112 3115 3117 3123 3121 3122 3125 3128 3131 3134 3137 3139 3141 3142 3145 3145 3146 3144 3147 3148 3150 3150 3153 3157 3158 3163 3164 3164 3165 3166 3164 3163 3166 3167 3165 3164 3161 3162 3161
3109 3109 3110 3111 3111 3112 3114 3117 3121 3118 3119 3121 3125 3128 3131 3134 3135 3138 3141 3143 3145 3146 3146 3148 3148 3149 3150 3153 3155 3157 3160 3161 3162 3160 3161 3162 3163 3163 3163 3162 3160 3158 3157 3156
3106 3107 3108 3109 3110 3111 3113 3115 3119 3117 3120 3120 3121 3124 3127 3130 3134 3136 3139 3140 3142 3144 3146 3148 3147 3149 3152 3152 3153 3156 3159 3160 3161 3161 3160 3160 3160 3158 3157 3157 3157 3157 3155 3154
3104 3105 3106 3107 3109 3110 3113 3112 3113 3114 3118 3118 3120 3123 3124 3126 3130 3134 3136 3138 3140 3143 3144 3145 3147 3149 3150 3149 3152 3153 3156 3158 3160 3159 3158 3157 3155 3154 3154 3154 3153 3151 3150 3150
3102 3102 3103 3105 3107 3108 3108 3108 3110 3112 3115 3117 3119 3120 3123 3126 3126 3131 3133 3135 3138 3140 3141 3142 3140 3141 3145 3145 3149 3152 3154 3157 3158 3156 3155 3154 3153 3151 3150 3151 3150 3150 3147 3144
3099 3100 3101 3102 3103 3105 3106 3107 3109 3112 3115 3117 3117 3119 3121 3124 3127 3128 3130 3132 3133 3130 3132 3136 3139 3140 3142 3145 3147 3149 3151 3153 3156 3155 3154 3150 3148 3148 3146 3146 3148 3148 3147 3139
3096 3097 3098 3099 3100 3102 3104 3105 3107 3108 3111 3114 3117 3117 3119 3121 3122 3126 3127 3129 3126 3128 3131 3136 3138 3140 3140 3142 3145 3148 3151 3153 3154 3153 3151 3148 3145 3144 3144 3145 3147 3142 3143 3140
3093 3094 3096 3097 3098 3099 3101 3103 3104 3106 3109 3111 3110 3113 3118 3120 3122 3125 3125 3127 3124 3127 3131 3135 3136 3136 3138 3139 3141 3144 3148 3150 3153 3152 3148 3143 3142 3144 3146 3145 3138 3137 3141 3140
3091 3092 3093 3095 3095 3097 3098 3100 3102 3104 3105 3109 3109 3113 3113 3117 3119 3121 3122 3123 3124 3125 3128 3131 3131 3131 3133 3133 3135 3137 3141 3144 3145 3147 3146 3142 3138 3144 3141 3144 3146 3140 3138 3141
3088 3089 3090 3092 3093 3094 3096 3098 3099 3101 3102 3103 3103 3106 3109 3112 3116 3119 3116 3122 3123 3125 3126 3128 3127 3127 3127 3129 3130 3132 3134 3139 3141 3143 3143 3138 3138 3140 3141 3144 3141 3141 3134 3137
3085 3086 3088 3089 3091 3092 3093 3095 3096 3098 3099 3100 3102 3104 3106 3108 3108 3110 3112 3118 3120 3122 3124 3125 3125 3125 3125 3125 3125 3129 3133 3134 3134 3139 3139 3134 3131 3131 3135 3139 3138 3135 3136 3137
3082 3084 3085 3086 3088 3090 3091 3093 3094 3095 3097 3099 3100 3101 3101 3103 3105 3107 3112 3115 3112 3115 3115 3118 3121 3122 3124 3124 3125 3126 3128 3129 3132 3134 3133 3130 3129 3125 3128 3131 3133 3135 3136 3136
3079 3081 3082 3084 3085 3087 3089 3090 3092 3094 3095 3098 3100 3098 3097 3097 3099 3101 3105 3105 3109 3113 3116 3118 3119 3120 3120 3122 3123 3123 3121 3124 3128 3129 3129 3121 3107 3118 3127 3129 3132 3133 3133 3134
3077 3078 3080 3082 3083 3085 3087 3088 3090 3091 3095 3094 3096 3097 3095 3094 3095 3097 3100 3101 3106 3111 3115 3116 3117 3118 3120 3118 3119 3123 3121 3121 3122 3123 3122 3119 3116 3118 3123 3126 3128 3129 3131 3132
3074 3076 3077 3079 3081 3083 3085 3087 3088 3089 3091 3094 3098 3096 3094 3092 3092 3093 3095 3097 3101 3106 3111 3114 3115 3117 3116 3118 3118 3122 3121 3120 3119 3117 3119 3121 3123 3124 3123 3124 3124 3124 3125 3127
3072 3073 3075 3077 3079 3081 3084 3086 3088 3088 3090 3092 3096 3096 3092 3091 3090 3093 3095 3096 3101 3104 3107 3109 3111 3114 3112 3114 3114 3115 3114 3115 3115 3115 3118 3121 3122 3122 3122 3122 3121 3119 3120 3121
3070 3072 3073 3076 3078 3080 3082 3084 3085 3086 3089 3091 3093 3092 3093 3092 3094 3096 3097 3099 3100 3101 3103 3106 3107 3109 3109 3109 3111 3112 3113 3112 3113 3113 3114 3116 3117 3118 3118 3116 3119 3116 3116 3117
3068 3070 3072 3074 3076 3079 3080 3082 3084 3085 3089 3088 3091 3090 3090 3091 3094 3095 3097 3099 3099 3100 3100 3101 3104 3103 3103 3105 3106 3107 3109 3108 3106 3107 3107 3110 3112 3114 3113 3114 3115 3114 3113 3113
3067 3070 3072 3074 3076 3078 3080 3082 3083 3084 3085 3086 3086 3089 3085 3090 3093 3095 3097 3096 3097 3096 3097 3098 3098 3098 3100 3102 3103 3102 3102 3101 3102 3103 3104 3107 3109 3109 3109 3110 3111 3111 3110 3110
3067 3070 3072 3073 3075 3077 3079 3080 3082 3083 3086 3085 3085 3088 3088 3091 3090 3089 3090 3092 3094 3092 3094 3094 3092 3093 3094 3097 3095 3095 3096 3097 3098 3098 3099 3100 3102 3103 3100 3104 3105 3105 3104 3106
3065 3069 3072 3073 3076 3077 3079 3080 3083 3084 3084 3084 3086 3087 3089 3088 3087 3088 3088 3089 3090 3089 3089 3090 3088 3088 3088 3090 3089 3090 3091 3092 3091 3093 3095 3096 3097 3097 3097 3097 3098 3101 3099 3097
3066 3070 3072 3074 3076 3076 3078 3078 3080 3081 3080 3082 3083 3085 3085 3086 3087 3087 3087 3086 3087 3087 3085 3084 3083 3083 3085 3085 3086 3086 3086 3086 3086 3087 3087 3088 3092 3092 3093 3094 3093 3097 3097 3094
3067 3070 3071 3073 3074 3076 3076 3076 3076 3078 3079 3078 3080 3082 3083 3083 3085 3085 3084 3086 3085 3083 3081 3081 3080 3080 3081 3081 3081 3081 3079 3079 3079 3080 3081 3082 3082 3085 3087 3087 3089 3089 3090 3091
3065 3070 3071 3071 3073 3074 3074 3074 3075 3077 3077 3079 3081 3082 3084 3083 3084 3084 3084 3082 3080 3079 3078 3078 3077 3077 3077 3077 3076 3074 3073 3071 3070 3071 3072 3074 3076 3075 3077 3080 3081 3083 3083 3083
3065 3067 3069 3070 3072 3073 3074 3075 3073 3074 3076 3079 3081 3081 3081 3082 3082 3082 3081 3079 3078 3075 3075 3075 3074 3072 3071 3070 3068 3066 3064 3062 3060 3060 3060 3064 3066 3068 3070 3074 3076 3077 3079 3078
3063 3066 3068 3070 3071 3072 3071 3069 3074 3073 3077 3078 3078 3079 3079 3080 3080 3081 3080 3077 3076 3074 3072 3070 3067 3067 3063 3060 3057 3055 3054 3052 3052 3052 3054 3059 3062 3063 3066 3069 3060 3063 3070 3069